Time,TemperatureF,DewpointF,PressureIn,WindDirection,WindDirectionDegrees,WindSpeedMPH,WindSpeedGustMPH,Humidity,HourlyPrecipIn,Conditions,Clouds,dailyrainin,SoftwareType,DateUTC
2013-02-21 00:03:00,27.0,17.0,-100.00,WNW,295,0.0,0.0,64,0.00,,,-99.99,,2013-02-21 05:03:00,
2013-02-21 00:10:00,27.0,16.0,-100.00,WNW,287,0.0,0.0,63,0.00,,,-99.99,,2013-02-21 05:10:00,
2013-02-21 00:12:00,27.0,17.0,-100.00,WNW,295,0.0,0.0,64,0.00,,,-99.99,,2013-02-21 05:12:00,
2013-02-21 00:22:00,27.0,17.0,-100.00,WNW,296,0.0,0.0,63,0.00,,,-99.99,,2013-02-21 05:22:00,
2013-02-21 00:36:00,27.0,16.0,-100.00,WNW,287,0.0,0.0,63,0.00,,,-99.99,,2013-02-21 05:36:00,
2013-02-21 00:45:00,27.0,16.0,-100.00,WNW,287,0.0,0.0,63,0.00,,,-99.99,,2013-02-21 05:45:00,
2013-02-21 00:54:00,27.0,16.0,-100.00,WNW,287,0.0,0.0,63,0.00,,,-99.99,,2013-02-21 05:54:00,
2013-02-21 01:01:00,27.0,16.0,-100.00,WNW,287,0.0,0.0,63,0.00,,,-99.99,,2013-02-21 06:01:00,
2013-02-21 02:21:00,26.0,16.0,-100.00,WNW,289,0.0,0.0,67,0.00,,,-99.99,,2013-02-21 07:21:00,
2013-02-21 02:32:00,26.0,16.0,-100.00,WNW,289,0.0,0.0,67,0.00,,,-99.99,,2013-02-21 07:32:00,
2013-02-21 02:42:00,25.0,16.0,-100.00,WNW,301,0.0,0.0,67,0.00,,,-99.99,,2013-02-21 07:42:00,
2013-02-21 02:52:00,25.0,16.0,-100.00,NW,304,0.0,0.0,67,0.00,,,-99.99,,2013-02-21 07:52:00,
2013-02-21 03:02:00,25.0,16.0,-100.00,NW,319,0.0,0.0,68,0.00,,,-99.99,,2013-02-21 08:02:00,
2013-02-21 03:10:00,25.0,16.0,-100.00,NW,311,0.0,0.0,67,0.00,,,-99.99,,2013-02-21 08:10:00,
2013-02-21 03:11:00,25.0,16.0,-100.00,NW,319,0.0,0.0,68,0.00,,,-99.99,,2013-02-21 08:11:00,
2013-02-21 03:21:00,25.0,16.0,-100.00,NW,319,0.0,0.0,68,0.00,,,-99.99,,2013-02-21 08:21:00,
2013-02-21 03:32:00,25.0,16.0,-100.00,NW,311,0.0,0.0,67,0.00,,,-99.99,,2013-02-21 08:32:00,
2013-02-21 03:42:00,25.0,16.0,-100.00,NW,311,0.0,0.0,67,0.00,,,-99.99,,2013-02-21 08:42:00,
2013-02-21 03:52:00,25.0,16.0,-100.00,NW,311,0.0,0.0,67,0.00,,,-99.99,,2013-02-21 08:52:00,
2013-02-21 04:02:00,25.0,16.0,-100.00,NW,311,0.0,0.0,67,0.00,,,-99.99,,2013-02-21 09:02:00,
2013-02-21 07:22:00,22.0,10.0,-100.00,NNW,347,0.0,0.0,62,0.00,,,-99.99,,2013-02-21 12:22:00,
2013-02-21 07:32:00,22.0,10.0,-100.00,NNW,347,0.0,0.0,62,0.00,,,-99.99,,2013-02-21 12:32:00,
2013-02-21 07:43:00,22.0,10.0,-100.00,NNW,347,0.0,0.0,62,0.00,,,-99.99,,2013-02-21 12:43:00,
2013-02-21 07:52:00,21.0,10.0,-100.00,North,7,0.0,0.0,61,0.00,,,-99.99,,2013-02-21 12:52:00,
2013-02-21 08:02:00,21.0,10.0,-100.00,North,7,0.0,0.0,61,0.00,,,-99.99,,2013-02-21 13:02:00,
2013-02-21 08:12:00,21.0,10.0,-100.00,North,7,0.0,0.0,61,0.00,,,-99.99,,2013-02-21 13:12:00,
2013-02-21 08:22:00,21.0,9.0,-100.00,North,352,0.0,0.0,58,0.00,,,-99.99,,2013-02-21 13:22:00,
2013-02-21 08:32:00,21.0,9.0,-100.00,North,352,0.0,0.0,58,0.00,,,-99.99,,2013-02-21 13:32:00,
2013-02-21 08:42:00,21.0,9.0,-100.00,North,352,0.0,0.0,58,0.00,,,-99.99,,2013-02-21 13:42:00,
2013-02-21 08:51:00,21.0,9.0,-100.00,North,352,0.0,0.0,58,0.00,,,-99.99,,2013-02-21 13:51:00,
2013-02-21 10:02:00,24.0,9.0,-100.00,NNW,340,0.0,0.0,52,0.00,,,-99.99,,2013-02-21 15:02:00,
2013-02-21 10:12:00,24.0,9.0,-100.00,NNW,340,0.0,0.0,52,0.00,,,-99.99,,2013-02-21 15:12:00,
2013-02-21 10:22:00,24.0,9.0,-100.00,NNW,340,0.0,0.0,52,0.00,,,-99.99,,2013-02-21 15:22:00,
2013-02-21 10:32:00,24.0,9.0,-100.00,NNW,340,0.0,0.0,52,0.00,,,-99.99,,2013-02-21 15:32:00,
2013-02-21 13:22:00,26.0,13.0,-100.00,NNW,343,0.0,0.0,57,0.00,,,-99.99,,2013-02-21 18:22:00,
2013-02-21 13:32:00,26.0,13.0,-100.00,NNW,343,0.0,0.0,57,0.00,,,-99.99,,2013-02-21 18:32:00,
2013-02-21 13:42:00,26.0,13.0,-100.00,NNW,343,0.0,0.0,57,0.00,,,-99.99,,2013-02-21 18:42:00,
2013-02-21 13:51:00,26.0,13.0,-100.00,NNW,343,0.0,0.0,57,0.00,,,-99.99,,2013-02-21 18:51:00,
2013-02-21 14:02:00,27.0,13.0,-100.00,NNW,339,0.0,0.0,55,0.00,,,-99.99,,2013-02-21 19:02:00,
2013-02-21 14:12:00,27.0,13.0,-100.00,NNW,339,0.0,0.0,55,0.00,,,-99.99,,2013-02-21 19:12:00,
2013-02-21 14:21:00,27.0,13.0,-100.00,NNW,339,0.0,0.0,55,0.00,,,-99.99,,2013-02-21 19:21:00,
2013-02-21 14:32:00,27.0,13.0,-100.00,NNW,339,0.0,0.0,55,0.00,,,-99.99,,2013-02-21 19:32:00,
2013-02-21 15:53:00,27.0,14.0,-100.00,NNW,337,0.0,0.0,59,0.00,,,-99.99,,2013-02-21 20:53:00,
2013-02-21 16:02:00,27.0,14.0,-100.00,NNW,337,0.0,0.0,59,0.00,,,-99.99,,2013-02-21 21:02:00,
2013-02-21 16:12:00,27.0,14.0,-100.00,NNW,337,0.0,0.0,59,0.00,,,-99.99,,2013-02-21 21:12:00,
2013-02-21 16:20:00,26.0,15.0,-100.00,NNW,335,0.0,0.0,62,0.00,,,-99.99,,2013-02-21 21:20:00,
2013-02-21 16:21:00,26.0,15.0,-100.00,NNW,347,0.0,0.0,61,0.00,,,-99.99,,2013-02-21 21:21:00,
2013-02-21 16:32:00,26.0,15.0,-100.00,NNW,347,0.0,0.0,61,0.00,,,-99.99,,2013-02-21 21:32:00,
2013-02-21 16:42:00,26.0,15.0,-100.00,NNW,335,0.0,0.0,62,0.00,,,-99.99,,2013-02-21 21:42:00,
2013-02-21 16:52:00,26.0,15.0,-100.00,NNW,335,0.0,0.0,62,0.00,,,-99.99,,2013-02-21 21:52:00,
2013-02-21 17:01:00,26.0,15.0,-100.00,NNW,335,0.0,0.0,62,0.00,,,-99.99,,2013-02-21 22:01:00,
2013-02-21 17:11:00,26.0,15.0,-100.00,NNW,335,0.0,0.0,62,0.00,,,-99.99,,2013-02-21 22:11:00,
2013-02-21 17:42:00,27.0,16.0,-100.00,NNW,343,0.0,0.0,63,0.00,,,-99.99,,2013-02-21 22:42:00,
2013-02-21 17:52:00,27.0,16.0,-100.00,NNW,336,0.0,0.0,63,0.00,,,-99.99,,2013-02-21 22:52:00,
2013-02-21 18:01:00,27.0,16.0,-100.00,NNW,336,0.0,0.0,63,0.00,,,-99.99,,2013-02-21 23:01:00,
2013-02-21 18:11:00,27.0,16.0,-100.00,NNW,336,0.0,0.0,63,0.00,,,-99.99,,2013-02-21 23:11:00,
2013-02-21 18:21:00,27.0,16.0,-100.00,NNW,336,0.0,0.0,63,0.00,,,-99.99,,2013-02-21 23:21:00,
2013-02-21 18:32:00,27.0,17.0,-100.00,NNW,342,0.0,0.0,64,0.00,,,-99.99,,2013-02-21 23:32:00,
2013-02-21 18:42:00,27.0,17.0,-100.00,NNW,342,0.0,0.0,64,0.00,,,-99.99,,2013-02-21 23:42:00,
2013-02-21 18:52:00,27.0,17.0,-100.00,NNW,342,0.0,0.0,64,0.00,,,-99.99,,2013-02-21 23:52:00,
2013-02-21 20:01:00,26.0,17.0,-100.00,NNW,339,0.0,0.0,66,0.00,,,-99.99,,2013-02-22 01:01:00,
2013-02-21 20:11:00,26.0,17.0,-100.00,NNW,339,0.0,0.0,66,0.00,,,-99.99,,2013-02-22 01:11:00,
2013-02-21 20:22:00,26.0,17.0,-100.00,NNW,339,0.0,0.0,66,0.00,,,-99.99,,2013-02-22 01:22:00,
2013-02-21 20:32:00,26.0,17.0,-100.00,NNW,339,0.0,0.0,66,0.00,,,-99.99,,2013-02-22 01:32:00,
2013-02-21 20:42:00,26.0,17.0,-100.00,NNW,339,0.0,0.0,66,0.00,,,-99.99,,2013-02-22 01:42:00,
2013-02-21 21:22:00,27.0,18.0,-100.00,North,352,0.0,0.0,68,0.00,,,-99.99,,2013-02-22 02:22:00,
2013-02-21 21:32:00,27.0,18.0,-100.00,North,352,0.0,0.0,68,0.00,,,-99.99,,2013-02-22 02:32:00,
2013-02-21 21:42:00,27.0,18.0,-100.00,North,352,0.0,0.0,68,0.00,,,-99.99,,2013-02-22 02:42:00,